Location: Newark
(55.7083°N, 13.1992°E)
Time: 12:14:21
(UTC+00:00)

Tiros 1 - All Passes

Search period start: 17 February 2020 00:00
Search period end: 27 February 2020 00:00
Orbit: 630 x 664 km, 48.4° (Epoch: 16 February)

Date Brightness Start Highest point End Pass type
(mag) Time Alt. Az. Time Alt. Az. Time Alt. Az.
17 Feb - 03:59:00 10° SSW 04:02:32 22° SSE 04:06:05 10° ESE visible
17 Feb - 05:39:48 10° WSW 05:43:56 33° S 05:48:06 10° ESE visible
17 Feb - 07:21:31 10° WSW 07:25:26 27° SSW 07:29:21 10° SE daylight
17 Feb - 09:04:35 10° WSW 09:06:34 13° SW 09:08:32 10° S daylight
18 Feb - 02:44:39 10° S 02:47:01 14° SE 02:49:23 10° ESE visible
18 Feb - 04:24:13 10° SW 04:28:12 29° SSE 04:32:11 10° ESE visible
18 Feb - 06:05:34 10° WSW 06:09:42 33° S 06:13:50 10° ESE daylight
18 Feb - 07:47:40 10° WSW 07:51:04 20° SSW 07:54:28 10° SSE daylight
19 Feb - 03:09:04 10° SSW 03:12:33 21° SSE 03:16:01 10° ESE visible
19 Feb - 04:49:47 10° WSW 04:53:55 33° S 04:58:04 10° ESE visible
19 Feb - 06:31:29 10° WSW 06:35:25 28° SSW 06:39:22 10° SE daylight
19 Feb - 08:14:23 10° WSW 08:16:34 13° SW 08:18:45 10° S daylight
20 Feb - 01:54:51 10° S 01:57:02 13° SE 01:59:12 10° ESE visible
20 Feb - 03:34:14 10° SW 03:38:11 28° SSE 03:42:08 10° ESE visible
20 Feb - 05:15:32 10° WSW 05:19:41 33° S 05:23:49 10° ESE visible
20 Feb - 06:57:35 10° WSW 07:01:03 21° SSW 07:04:32 10° SSE daylight
21 Feb - 02:19:08 10° SSW 02:22:33 20° SSE 02:25:56 10° ESE visible
21 Feb - 03:59:46 10° WSW 04:03:54 33° S 04:08:02 10° ESE visible
21 Feb - 05:41:26 10° WSW 05:45:24 29° SSW 05:49:23 10° SE visible
21 Feb - 07:24:12 10° WSW 07:26:35 14° SSW 07:28:57 10° S daylight
22 Feb - 01:05:04 10° S 01:07:03 13° SE 01:09:01 10° ESE visible
22 Feb - 02:44:15 10° SW 02:48:11 27° SSE 02:52:05 10° ESE visible
22 Feb - 04:25:31 10° WSW 04:29:40 33° S 04:33:49 10° ESE visible
22 Feb - 06:07:32 10° WSW 06:11:03 22° SSW 06:14:35 10° SSE daylight
23 Feb - 01:29:13 10° SSW 01:32:32 20° SSE 01:35:52 10° ESE visible
23 Feb - 03:09:46 10° SW 03:13:53 32° S 03:18:00 10° ESE visible
23 Feb - 04:51:24 10° WSW 04:55:23 29° SSW 04:59:23 10° SE visible
23 Feb - 06:34:03 10° WSW 06:36:36 15° SSW 06:39:08 10° S daylight
24 Feb - 00:15:20 10° SSE 00:17:03 12° SE 00:18:46 10° ESE night (unlit)
24 Feb - 01:54:16 10° SW 01:58:10 27° SSE 02:02:02 10° ESE visible
24 Feb - 03:35:29 10° WSW 03:39:38 33° S 03:43:48 10° ESE visible
24 Feb - 05:17:27 10° WSW 05:21:03 23° SSW 05:24:39 10° SSE visible
25 Feb - 00:39:17 10° SSW 00:42:32 19° SSE 00:45:47 10° ESE night (unlit)
25 Feb - 02:19:45 10° SW 02:23:52 32° S 02:27:59 10° ESE visible
25 Feb - 04:01:21 10° WSW 04:05:22 30° SSW 04:09:24 10° SE visible
25 Feb - 05:43:55 10° WSW 05:46:36 15° SSW 05:49:17 10° S daylight
25 Feb - 23:25:40 10° SSE 23:27:04 11° SE 23:28:28 10° SE night (unlit)
26 Feb - 01:04:17 10° SW 01:08:09 26° SSE 01:11:59 10° ESE visible
26 Feb - 02:45:27 10° WSW 02:49:37 34° S 02:53:47 10° ESE visible
26 Feb - 04:27:24 10° WSW 04:31:02 23° SSW 04:34:41 10° SSE visible
26 Feb - 23:49:22 10° SSW 23:52:32 18° SSE 23:55:42 10° ESE night (unlit)
